TimeEDT,TemperatureF,Dew PointF,Humidity,Sea Level PressureIn,VisibilityMPH,Wind Direction,Wind SpeedMPH,Gust SpeedMPH,PrecipitationIn,Events,Conditions,WindDirDegrees,DateUTC
12:15 AM,74.3,65.3,73,30.19,10.0,SSW,3.5,-,N/A,,Clear,210,2013-05-30 04:15:00
12:35 AM,73.2,65.3,76,30.19,10.0,South,3.5,-,N/A,,Clear,190,2013-05-30 04:35:00
12:55 AM,72.7,65.3,78,30.19,10.0,South,4.6,-,N/A,,Clear,170,2013-05-30 04:55:00
1:15 AM,72.5,65.5,79,30.19,10.0,South,4.6,-,N/A,,Clear,170,2013-05-30 05:15:00
1:35 AM,72.5,65.3,78,30.20,10.0,South,4.6,-,N/A,,Clear,190,2013-05-30 05:35:00
1:55 AM,72.5,65.7,79,30.20,10.0,SSW,5.8,-,N/A,,Clear,200,2013-05-30 05:55:00
2:15 AM,72.3,65.8,80,30.21,10.0,SSW,6.9,-,N/A,,Clear,200,2013-05-30 06:15:00
2:35 AM,71.8,65.8,81,30.21,10.0,SSW,5.8,-,N/A,,Clear,210,2013-05-30 06:35:00
2:55 AM,71.6,66.2,83,30.21,10.0,SSW,8.1,-,N/A,,Clear,200,2013-05-30 06:55:00
3:15 AM,71.1,66.0,84,30.20,10.0,South,5.8,-,N/A,,Clear,190,2013-05-30 07:15:00
3:35 AM,70.9,66.2,85,30.20,10.0,SSW,6.9,-,N/A,,Clear,200,2013-05-30 07:35:00
3:55 AM,70.7,66.2,86,30.20,10.0,SSW,5.8,-,N/A,,Clear,210,2013-05-30 07:55:00
4:15 AM,70.2,65.8,86,30.20,10.0,SSW,4.6,-,N/A,,Clear,200,2013-05-30 08:15:00
4:35 AM,70.2,65.8,86,30.20,10.0,SSW,3.5,-,N/A,,Clear,200,2013-05-30 08:35:00
4:55 AM,69.8,65.7,87,30.21,10.0,South,4.6,-,N/A,,Clear,190,2013-05-30 08:55:00
5:15 AM,69.3,65.8,89,30.22,10.0,SSW,5.8,-,N/A,,Clear,200,2013-05-30 09:15:00
5:35 AM,69.3,66.0,89,30.23,10.0,SSW,4.6,-,N/A,,Clear,200,2013-05-30 09:35:00
5:55 AM,68.9,65.8,90,30.23,10.0,SSW,4.6,-,N/A,,Clear,210,2013-05-30 09:55:00
6:15 AM,68.4,65.7,91,30.24,10.0,SSW,4.6,-,N/A,,Clear,200,2013-05-30 10:15:00
6:35 AM,68.9,65.8,90,30.24,10.0,SSW,3.5,-,N/A,,Clear,200,2013-05-30 10:35:00
6:55 AM,69.6,66.2,89,30.25,10.0,SSW,4.6,-,N/A,,Clear,200,2013-05-30 10:55:00
7:15 AM,70.0,66.2,88,30.25,10.0,SSW,4.6,-,N/A,,Clear,200,2013-05-30 11:15:00
7:35 AM,70.9,66.2,85,30.25,10.0,SW,5.8,-,N/A,,Clear,230,2013-05-30 11:35:00
7:55 AM,71.8,66.6,84,30.25,10.0,SSW,6.9,-,N/A,,Clear,210,2013-05-30 11:55:00
8:15 AM,72.9,66.7,81,30.25,10.0,SW,8.1,-,N/A,,Clear,220,2013-05-30 12:15:00
8:35 AM,73.6,67.1,80,30.25,10.0,SW,8.1,-,N/A,,Clear,220,2013-05-30 12:35:00
8:55 AM,74.8,67.5,78,30.25,10.0,SW,8.1,-,N/A,,Clear,220,2013-05-30 12:55:00
9:15 AM,75.9,68.2,77,30.25,10.0,SW,9.2,-,N/A,,Clear,220,2013-05-30 13:15:00
9:35 AM,76.5,68.2,75,30.25,10.0,SSW,6.9,-,N/A,,Clear,210,2013-05-30 13:35:00
9:55 AM,77.7,69.1,75,30.25,10.0,SSW,6.9,-,N/A,,Clear,210,2013-05-30 13:55:00
10:15 AM,78.6,69.3,73,30.24,10.0,SSW,10.4,-,N/A,,Clear,210,2013-05-30 14:15:00
10:35 AM,79.9,69.1,69,30.24,10.0,SSW,9.2,-,N/A,,Clear,210,2013-05-30 14:35:00
10:55 AM,80.8,70.0,70,30.24,10.0,SSW,9.2,-,N/A,,Clear,210,2013-05-30 14:55:00
11:15 AM,81.3,69.4,67,30.24,10.0,SSW,8.1,-,N/A,,Clear,200,2013-05-30 15:15:00
11:35 AM,82.4,70.2,66,30.24,10.0,SSW,8.1,-,N/A,,Clear,210,2013-05-30 15:35:00
11:55 AM,83.5,70.7,65,30.24,10.0,SW,9.2,-,N/A,,Clear,220,2013-05-30 15:55:00
12:15 PM,83.7,70.0,63,30.24,10.0,SW,10.4,16.1,N/A,,Clear,220,2013-05-30 16:15:00
12:35 PM,84.4,70.3,63,30.23,10.0,SW,10.4,-,N/A,,Clear,220,2013-05-30 16:35:00
12:55 PM,85.1,69.1,59,30.23,10.0,SW,10.4,-,N/A,,Clear,230,2013-05-30 16:55:00
1:15 PM,85.5,70.0,60,30.22,10.0,SSW,9.2,-,N/A,,Clear,210,2013-05-30 17:15:00
1:35 PM,86.0,69.6,58,30.22,10.0,WSW,8.1,-,N/A,,Clear,240,2013-05-30 17:35:00
1:55 PM,86.2,68.9,56,30.21,10.0,SW,9.2,-,N/A,,Clear,220,2013-05-30 17:55:00
2:15 PM,86.5,68.9,56,30.21,10.0,SSW,8.1,-,N/A,,Clear,210,2013-05-30 18:15:00
2:35 PM,87.1,69.3,55,30.20,10.0,WSW,8.1,-,N/A,,Clear,240,2013-05-30 18:35:00
2:55 PM,87.6,68.5,53,30.20,10.0,SW,8.1,-,N/A,,Clear,230,2013-05-30 18:55:00
3:15 PM,87.8,69.4,54,30.19,10.0,SW,6.9,-,N/A,,Clear,230,2013-05-30 19:15:00
3:35 PM,87.8,68.9,53,30.19,10.0,SW,8.1,-,N/A,,Clear,230,2013-05-30 19:35:00
3:55 PM,87.8,67.8,51,30.18,10.0,SSW,8.1,-,N/A,,Clear,210,2013-05-30 19:55:00
4:15 PM,88.0,68.4,52,30.18,10.0,SW,8.1,-,N/A,,Clear,220,2013-05-30 20:15:00
4:35 PM,88.0,68.5,52,30.18,10.0,SW,6.9,-,N/A,,Clear,220,2013-05-30 20:35:00
4:55 PM,87.8,69.1,54,30.18,10.0,SW,6.9,-,N/A,,Clear,220,2013-05-30 20:55:00
5:15 PM,87.4,68.2,53,30.18,10.0,SSW,5.8,-,N/A,,Clear,210,2013-05-30 21:15:00
5:35 PM,87.1,68.2,53,30.18,10.0,South,6.9,-,N/A,,Clear,190,2013-05-30 21:35:00
5:55 PM,86.9,67.8,53,30.18,10.0,SSW,6.9,-,N/A,,Clear,200,2013-05-30 21:55:00
6:15 PM,86.7,68.0,54,30.17,10.0,SSW,6.9,-,N/A,,Clear,210,2013-05-30 22:15:00
6:35 PM,86.2,68.0,54,30.17,10.0,SSW,5.8,-,N/A,,Clear,210,2013-05-30 22:35:00
6:55 PM,85.5,68.9,57,30.18,10.0,SSW,4.6,-,N/A,,Clear,200,2013-05-30 22:55:00
7:15 PM,84.6,69.4,60,30.18,10.0,South,4.6,-,N/A,,Clear,190,2013-05-30 23:15:00
7:35 PM,83.7,69.4,62,30.18,10.0,South,3.5,-,N/A,,Clear,190,2013-05-30 23:35:00
7:55 PM,82.6,69.8,65,30.18,10.0,Calm,Calm,-,N/A,,Clear,0,2013-05-30 23:55:00
8:15 PM,81.0,69.8,69,30.18,10.0,Calm,Calm,-,N/A,,Clear,0,2013-05-31 00:15:00
8:35 PM,76.8,70.5,81,30.18,10.0,Calm,Calm,-,N/A,,Clear,0,2013-05-31 00:35:00
8:55 PM,75.2,70.9,86,30.18,10.0,Calm,Calm,-,N/A,,Clear,0,2013-05-31 00:55:00
9:15 PM,73.8,70.0,88,30.17,10.0,Calm,Calm,-,N/A,,Clear,0,2013-05-31 01:15:00
9:35 PM,72.7,70.5,93,30.17,10.0,Calm,Calm,-,N/A,,Clear,0,2013-05-31 01:35:00
9:55 PM,73.4,70.0,89,30.18,10.0,Calm,Calm,-,N/A,,Clear,0,2013-05-31 01:55:00
10:15 PM,72.9,70.5,92,30.18,10.0,Calm,Calm,-,N/A,,Clear,0,2013-05-31 02:15:00
10:35 PM,75.0,70.2,85,30.19,10.0,SSW,4.6,-,N/A,,Clear,210,2013-05-31 02:35:00
10:55 PM,75.9,69.4,80,30.19,10.0,Calm,Calm,-,N/A,,Clear,0,2013-05-31 02:55:00
11:15 PM,75.2,68.9,81,30.19,10.0,Calm,Calm,-,N/A,,Clear,0,2013-05-31 03:15:00
11:35 PM,72.7,68.4,86,30.19,10.0,Calm,Calm,-,N/A,,Clear,0,2013-05-31 03:35:00
11:55 PM,72.1,68.2,87,30.19,10.0,Calm,Calm,-,N/A,,Clear,0,2013-05-31 03:55:00